Temperature
24 25 24 23 23 22 21 21 21 20 20 20 20 20 20 20 20 20 19 19 19 19 19 19 19 19 19 19 19 19 19 19 19 19 19 19 18 18 17 17 17 17 17
25 25 24 24 23 22 21 21 21 20 20 20 20 19 19 19 20 20 19 19 19 19 19 19 19 19 19 19 19 19 19 19 19 19 19 18 18 18 17 17 17 18 18
25 25 24 24 23 22 22 21 21 20 20 20 20 19 19 19 19 19 19 19 19 19 19 19 19 19 19 19 19 19 19 19 19 18 18 18 18 18 18 17 17 18 18
25 25 24 24 23 22 22 21 21 20 20 20 19 19 19 19 19 19 19 19 19 19 19 19 19 19 19 19 19 19 19 19 18 18 17 17 18 18 18 18 18 18 18
24 24 24 24 23 23 22 21 21 20 20 20 20 19 19 19 19 19 19 19 19 19 19 19 19 20 20 20 20 20 19 19 18 18 17 17 18 18 18 18 18 18 18
23 24 24 24 23 23 22 22 21 21 20 20 20 20 20 20 20 20 20 20 20 19 19 20 20 20 20 20 20 20 20 19 18 18 18 18 18 18 18 18 18 18 18
22 23 24 24 23 23 22 22 21 21 20 20 20 20 20 20 20 20 20 20 20 20 20 20 20 20 20 20 20 20 20 19 19 18 18 18 18 19 19 18 18 18 18
23 23 24 24 23 23 22 22 21 21 21 21 20 20 20 20 20 20 20 20 20 20 20 19 20 20 20 20 20 20 20 19 19 18 18 18 19 19 19 19 18 18 18
24 23 24 23 23 23 22 22 22 21 21 21 21 21 20 20 20 20 20 20 20 20 20 19 20 20 20 20 20 20 20 19 19 19 18 18 19 19 19 19 19 18 18
24 23 23 23 23 23 22 22 22 21 21 21 21 21 21 20 20 20 20 20 20 20 20 20 19 19 19 19 19 19 19 19 19 19 19 19 19 19 19 19 18 18 18
25 23 22 22 22 22 22 22 22 21 21 21 21 20 20 20 20 20 20 20 19 19 20 19 19 19 19 19 19 19 19 19 19 19 19 19 19 19 19 19 18 18 18
25 24 23 22 21 21 20 21 21 21 21 21 20 20 20 20 19 19 19 19 19 19 19 19 19 19 19 19 19 18 19 19 19 18 19 19 19 19 19 19 18 18 18
25 25 24 22 21 21 21 20 20 20 20 20 19 19 19 19 19 19 19 19 19 19 19 19 19 19 19 19 18 18 18 18 18 18 19 19 19 19 19 19 19 18 18
24 24 24 22 21 21 21 20 20 20 20 19 19 19 19 19 18 19 19 19 18 18 19 18 18 18 18 18 18 18 18 18 18 18 19 19 19 19 19 19 19 19 18
23 23 23 22 21 20 20 20 20 20 20 20 19 19 19 19 18 18 18 18 18 18 18 18 18 18 18 18 18 18 18 18 18 18 18 18 18 18 18 19 19 19 19
22 22 22 21 20 20 20 20 20 20 20 19 19 19 19 18 18 18 18 18 18 18 18 18 18 18 18 18 18 18 18 18 18 18 18 18 18 18 18 18 19 19 19
21 21 21 20 20 19 19 19 19 19 19 19 19 18 18 18 18 18 18 18 18 18 18 18 18 18 18 18 18 18 18 18 18 18 18 18 18 18 18 18 18 19 19
20 20 20 19 19 19 18 18 18 18 18 18 18 18 18 18 17 17 17 17 17 17 17 17 17 17 17 17 17 18 18 18 18 18 18 18 18 18 18 18 18 18 18
19 19 19 19 19 18 18 18 18 18 18 18 18 18 17 17 17 17 17 17 17 17 17 17 17 17 17 17 17 18 18 18 18 18 18 18 18 18 18 18 18 18 18
19 19 19 18 18 18 18 18 18 17 17 17 17 17 17 17 17 16 16 16 16 16 16 16 16 16 16 17 17 17 18 18 18 18 18 18 18 18 18 18 18 18 18
18 18 18 18 18 18 18 18 17 17 17 17 17 17 17 16 16 16 16 16 16 16 16 16 16 16 16 16 16 17 18 18 18 18 18 18 18 18 18 18 18 18 18
18 18 18 17 17 17 17 17 17 17 17 17 16 16 16 16 16 16 15 16 15 15 15 16 15 16 16 16 16 17 17 18 18 18 18 18 18 18 18 18 18 18 17
18 18 17 17 17 17 17 17 16 16 16 16 16 16 16 16 15 15 15 15 15 15 15 15 15 15 16 16 16 17 17 18 19 19 19 18 18 18 18 18 18 18 17
18 18 17 17 17 16 16 16 16 16 16 16 16 16 15 15 15 15 15 15 15 15 15 15 15 15 15 16 16 16 17 17 18 18 19 19 19 18 18 18 18 18 17
19 18 18 17 17 16 16 16 15 15 15 15 15 15 15 15 15 15 14 14 14 14 14 14 15 15 15 15 16 16 16 17 17 18 18 18 18 18 18 18 18 18 17
19 19 18 18 17 16 16 15 15 14 14 14 14 14 14 14 15 15 14 14 14 14 14 14 14 14 15 15 15 16 16 16 17 17 18 18 18 18 18 18 18 18 17
Wind_Speed
20 20 22 19 16 14 14 15 15 14 13 13 12 12 12 12 12 12 12 12 12 12 12 11 11 10 10 10 11 12 13 13 14 15 15 15 13 12 11 11 15 17 17
23 21 22 19 16 15 14 15 15 14 14 13 13 12 12 12 12 11 11 11 10 10 10 10 10 10 10 10 10 10 10 10 11 12 14 14 12 11 9 9 15 15 16
22 20 20 19 17 15 15 15 15 14 14 13 13 12 12 11 11 11 10 10 9 9 10 10 10 10 9 9 9 9 8 8 8 9 11 13 12 11 12 16 18 16 15
22 19 19 19 17 16 15 15 14 14 14 14 13 12 12 11 11 10 10 9 9 9 9 9 9 9 9 8 8 7 6 5 5 6 8 10 13 12 12 14 15 14 13
20 18 20 20 18 16 15 15 14 14 14 13 13 12 12 11 11 10 10 9 8 8 9 9 8 8 8 7 7 6 5 4 5 7 5 11 15 13 12 12 12 12 12
19 19 21 20 18 16 15 14 14 13 13 13 12 12 11 11 11 10 10 9 9 8 8 8 8 8 7 7 6 5 5 5 6 9 7 14 15 13 12 11 11 11 11
19 19 20 19 18 16 15 14 13 12 12 12 11 11 11 10 10 10 10 9 9 9 9 8 8 8 8 7 7 6 6 7 10 8 5 13 17 16 13 11 10 10 10
20 19 19 19 18 16 15 13 13 12 12 12 11 11 11 10 10 10 10 10 9 8 9 9 9 9 8 8 8 8 7 9 10 9 7 14 20 18 14 12 11 11 10
21 20 16 17 16 15 14 13 13 12 12 12 11 11 11 10 10 10 10 11 10 10 9 9 10 10 10 10 10 10 10 11 12 12 7 15 21 20 16 14 13 12 12
20 19 16 16 16 15 14 14 13 12 12 11 11 11 11 11 11 12 12 13 12 11 11 11 11 11 12 12 12 12 12 11 12 15 10 14 25 22 18 16 14 14 14
16 18 16 17 14 14 15 15 14 13 12 12 11 12 11 11 13 14 17 17 16 15 14 14 13 14 14 14 15 15 14 12 13 14 12 15 26 24 21 18 16 16 16
12 15 14 16 14 12 12 14 13 13 13 13 13 14 13 13 13 14 19 21 20 18 17 16 16 15 15 14 18 19 14 15 15 14 13 21 26 24 22 20 18 17 17
9 8 13 13 12 9 6 10 8 9 11 14 14 14 13 12 11 10 8 15 17 17 15 15 16 14 14 13 11 15 16 15 14 14 12 25 27 25 23 22 20 19 18
6 5 6 11 10 4 2 3 4 3 4 6 9 11 8 4 4 4 2 6 10 12 11 10 9 13 14 14 11 11 14 13 12 11 10 23 25 25 24 22 21 20 20
5 3 4 7 7 4 2 3 1 1 1 2 3 6 5 4 5 6 3 3 5 7 7 6 6 7 8 8 8 8 8 10 12 11 9 21 22 22 22 22 21 21 21
6 5 6 6 6 4 2 1 3 3 2 3 1 2 4 4 4 5 5 5 5 5 5 3 5 6 6 6 7 7 7 9 10 10 10 16 21 23 23 23 22 23 22
8 7 6 4 4 3 0 1 3 3 3 3 2 3 4 6 5 5 6 7 6 7 6 5 5 4 7 7 9 9 8 8 8 9 11 12 16 22 24 24 24 23 23
9 7 6 5 5 4 2 2 3 3 3 3 4 4 4 5 6 5 6 7 6 5 5 6 6 6 6 6 7 8 7 7 9 9 10 11 13 15 21 26 25 25 25
9 7 7 6 5 4 3 2 2 2 3 3 3 3 4 5 6 5 6 6 5 6 6 7 6 6 6 7 8 8 7 7 8 11 10 11 13 15 15 23 27 26 26
8 7 6 5 5 4 3 2 2 2 2 2 2 2 4 5 5 4 5 6 6 6 6 6 6 5 5 6 8 8 7 8 8 9 10 9 10 14 16 16 19 22 25
7 6 5 4 4 2 2 3 3 3 3 2 2 1 3 4 5 4 5 4 4 5 6 7 6 6 6 5 5 6 6 8 8 7 8 8 9 11 12 13 15 15 17
5 4 3 3 3 3 3 3 2 3 4 3 2 1 1 2 3 4 4 4 4 5 5 5 5 4 5 6 5 4 5 5 6 10 8 8 7 6 8 10 12 12 11
3 2 2 2 2 3 4 4 4 4 3 3 2 1 1 2 2 3 3 3 4 3 4 4 5 6 5 4 5 4 4 3 3 5 8 8 7 5 5 6 8 11 12
2 2 3 1 1 2 4 4 6 6 6 5 4 2 2 2 3 3 3 3 2 2 3 4 4 4 4 5 4 5 5 2 1 1 3 5 7 5 4 4 7 8 11
2 2 2 3 2 3 4 6 7 7 6 6 6 6 5 4 4 4 3 2 2 2 2 2 3 3 3 4 4 4 5 5 5 3 3 3 4 5 4 3 2 4 7
3 3 3 2 2 3 4 6 7 8 8 8 8 8 7 5 5 5 5 3 2 2 1 1 2 3 3 4 4 4 3 3 3 3 4 5 5 5 7 5 5 4 4
Wind_Direction
125 136 138 135 133 133 137 143 145 143 139 134 131 127 123 119 116 113 110 108 106 105 105 105 104 100 93 86 84 84 86 88 90 92 94 93 93 93 96 106 111 102 106
126 135 137 135 135 135 137 142 145 146 144 139 136 134 132 130 127 125 122 119 116 112 110 108 107 104 100 97 95 95 97 101 106 111 112 104 96 90 84 87 105 110 111
124 133 138 136 136 136 137 140 143 146 147 144 141 140 140 138 136 134 132 129 125 121 117 116 114 111 108 107 107 107 111 119 128 138 145 125 110 94 86 96 106 113 113
127 138 140 139 138 137 137 140 143 146 149 149 147 146 145 144 144 143 140 137 134 128 124 122 120 119 118 117 119 122 131 147 162 178 194 139 125 109 102 106 113 116 118
129 134 136 142 141 140 139 141 145 147 149 151 152 151 151 151 152 152 149 146 142 139 135 132 130 129 130 131 133 140 158 186 207 231 213 118 114 124 119 117 121 124 125
131 133 140 144 143 144 144 145 148 151 152 154 156 158 159 160 161 161 158 155 153 149 146 145 145 145 146 148 153 164 190 223 241 235 180 132 127 136 134 133 131 133 135
137 133 143 146 146 147 149 151 153 156 157 160 162 165 167 168 170 169 167 167 166 164 163 161 162 161 163 167 175 188 212 240 255 257 170 133 138 145 146 149 149 147 147
136 135 142 147 149 152 155 158 160 162 166 169 172 173 176 177 180 182 180 178 179 179 177 176 177 177 180 184 191 203 223 248 251 249 190 140 147 152 156 161 163 164 163
136 134 146 150 152 156 160 165 169 172 174 177 179 181 185 188 192 195 195 193 192 193 193 192 192 193 194 197 203 211 225 245 272 279 218 148 154 157 163 171 176 177 176
137 141 151 154 156 161 167 173 177 181 184 187 190 193 196 201 205 207 205 202 202 201 202 204 206 207 206 207 210 215 224 240 255 264 249 170 162 163 169 178 186 188 186
141 143 158 154 159 168 172 173 179 187 193 195 201 206 208 213 212 210 215 206 203 205 207 211 214 216 216 216 216 217 220 230 238 245 247 183 167 169 174 182 192 197 196
144 153 158 154 159 175 177 159 181 190 191 200 205 200 208 225 232 224 206 201 202 206 210 215 218 220 221 224 218 215 218 226 240 241 229 178 172 173 177 185 195 202 204
151 164 151 147 151 180 160 159 187 194 182 197 214 205 208 222 233 238 201 192 199 206 213 216 217 221 222 224 218 200 214 225 227 239 213 176 176 178 182 188 197 205 209
157 161 133 135 143 166 140 172 184 198 178 190 199 212 215 218 252 261 244 195 198 206 210 216 208 214 223 228 222 203 211 224 234 238 206 178 180 183 187 192 199 206 211
135 123 86 102 112 112 41 338 301 304 270 229 183 202 225 224 239 253 256 254 246 228 208 208 215 219 222 227 225 217 221 227 233 234 205 185 187 193 195 198 204 209 213
87 70 62 74 91 100 100 313 317 309 316 305 302 257 250 256 241 251 259 250 251 258 256 220 222 229 229 231 233 228 219 231 242 240 217 196 195 200 204 205 208 212 215
74 76 69 83 90 102 129 286 285 290 301 305 324 313 289 281 283 271 264 254 243 245 251 248 242 231 232 230 229 231 225 220 229 233 231 214 203 207 210 210 211 213 215
63 69 63 60 66 67 48 348 312 324 330 336 337 333 311 295 288 277 269 262 247 242 239 236 233 237 239 240 235 232 228 219 222 225 225 221 215 216 214 214 213 213 216
63 65 65 50 42 36 24 347 315 307 310 311 313 323 326 316 303 286 274 270 261 246 240 242 227 227 237 240 237 227 227 224 219 223 219 219 215 215 211 211 212 213 215
73 69 67 63 48 24 12 344 324 318 318 302 316 331 324 316 312 306 293 283 266 250 239 234 233 226 237 242 249 246 226 220 214 214 217 217 214 215 213 208 204 213 215
80 78 70 61 54 24 16 344 339 337 329 320 310 353 331 322 320 305 304 305 288 260 242 236 232 227 231 232 243 257 249 227 216 215 213 216 212 209 209 199 189 195 208
94 94 103 76 38 8 12 321 290 301 295 283 280 211 271 305 310 300 299 297 293 287 268 241 233 230 229 220 217 236 241 230 220 216 202 209 222 208 198 193 186 188 194
117 114 80 61 21 2 338 317 323 307 283 288 293 257 244 279 282 277 287 289 298 296 289 282 254 234 234 241 222 224 239 232 208 209 204 198 196 198 192 183 179 180 193
160 166 149 169 268 308 310 318 317 308 307 310 301 293 284 265 267 259 269 276 282 287 295 291 288 265 246 251 253 240 252 280 279 218 213 186 177 184 198 200 184 173 184
266 264 201 190 219 268 290 292 297 300 308 313 319 309 291 270 248 233 227 242 267 260 264 297 321 309 280 264 261 262 259 249 235 222 222 193 176 179 188 197 183 167 170
257 265 271 245 239 258 272 283 285 291 295 298 297 294 287 268 243 224 211 197 221 245 271 293 298 297 295 286 281 273 266 259 252 238 219 204 192 195 186 180 176 164 151
Height
1491 1494 1498 1502 1504 1507 1510 1513 1515 1518 1520 1522 1524 1526 1528 1529 1531 1532 1534 1535 1537 1538 1540 1541 1543 1544 1545 1546 1547 1548 1549 1549 1550 1551 1552 1553 1553 1554 1555 1556 1557 1558 1559
1490 1495 1498 1502 1505 1508 1511 1514 1516 1519 1521 1524 1526 1527 1529 1531 1532 1534 1535 1537 1538 1539 1541 1542 1544 1545 1546 1547 1548 1549 1550 1551 1552 1553 1554 1555 1555 1556 1557 1558 1559 1560 1561
1491 1495 1499 1503 1505 1508 1511 1514 1517 1520 1522 1524 1526 1528 1530 1532 1533 1535 1536 1538 1539 1540 1542 1543 1544 1546 1547 1548 1549 1550 1551 1553 1554 1554 1555 1557 1558 1558 1559 1560 1561 1562 1564
1492 1496 1500 1503 1506 1509 1512 1515 1518 1520 1523 1525 1527 1529 1531 1532 1534 1535 1537 1538 1540 1541 1542 1544 1545 1546 1548 1549 1550 1551 1553 1554 1555 1556 1557 1559 1560 1560 1561 1561 1563 1564 1565
1494 1497 1500 1504 1507 1509 1512 1515 1518 1521 1523 1525 1527 1529 1531 1533 1534 1536 1538 1539 1540 1542 1543 1544 1546 1547 1548 1550 1551 1552 1554 1555 1557 1557 1559 1561 1561 1562 1562 1563 1564 1565 1567
1495 1498 1501 1504 1507 1510 1512 1515 1518 1521 1523 1525 1528 1529 1531 1533 1534 1536 1538 1539 1541 1542 1543 1545 1546 1547 1549 1550 1552 1553 1555 1556 1558 1559 1561 1561 1562 1563 1564 1564 1565 1566 1568
1497 1498 1502 1505 1508 1510 1513 1515 1518 1521 1523 1525 1527 1529 1531 1533 1534 1536 1537 1539 1540 1542 1543 1544 1546 1547 1549 1550 1552 1553 1555 1556 1557 1560 1562 1562 1563 1564 1564 1565 1566 1567 1568
1498 1499 1503 1505 1508 1510 1513 1515 1518 1520 1523 1525 1527 1529 1530 1532 1534 1535 1537 1538 1540 1541 1542 1544 1545 1546 1548 1549 1551 1552 1554 1556 1557 1560 1561 1562 1562 1564 1565 1565 1566 1567 1569
1499 1499 1503 1505 1508 1510 1513 1515 1518 1520 1522 1524 1526 1528 1530 1531 1533 1534 1536 1537 1539 1540 1541 1543 1544 1545 1546 1548 1549 1551 1553 1554 1556 1557 1560 1560 1562 1563 1564 1565 1566 1567 1569
1500 1500 1503 1505 1508 1511 1513 1515 1518 1520 1522 1524 1526 1527 1529 1530 1532 1533 1534 1536 1537 1538 1540 1541 1542 1543 1544 1546 1547 1549 1551 1552 1554 1556 1558 1559 1560 1562 1563 1565 1566 1567 1568
1501 1501 1504 1506 1508 1511 1513 1515 1518 1519 1521 1523 1525 1526 1528 1529 1530 1531 1533 1534 1535 1536 1537 1539 1540 1541 1542 1543 1545 1546 1548 1549 1551 1553 1555 1557 1558 1559 1561 1563 1564 1566 1567
1502 1503 1505 1507 1508 1512 1514 1515 1517 1518 1520 1522 1523 1524 1526 1527 1529 1531 1531 1531 1532 1534 1534 1535 1537 1538 1539 1540 1541 1543 1544 1546 1548 1550 1552 1554 1555 1557 1558 1560 1562 1564 1565
1502 1505 1507 1508 1509 1513 1516 1516 1518 1519 1520 1521 1522 1523 1524 1526 1528 1529 1530 1529 1529 1530 1531 1531 1532 1534 1535 1537 1538 1539 1541 1543 1544 1546 1549 1550 1551 1553 1555 1557 1559 1561 1563
1503 1506 1508 1508 1509 1513 1516 1517 1518 1520 1520 1520 1521 1522 1523 1524 1525 1527 1527 1527 1526 1526 1527 1528 1529 1530 1531 1533 1535 1536 1537 1539 1541 1543 1544 1545 1547 1549 1551 1553 1555 1557 1559
1502 1505 1507 1508 1508 1511 1514 1515 1517 1518 1520 1520 1520 1520 1521 1521 1522 1523 1523 1524 1524 1524 1524 1524 1525 1527 1528 1529 1531 1532 1533 1535 1536 1538 1539 1540 1541 1543 1547 1549 1550 1552 1555
1501 1504 1505 1507 1508 1509 1511 1514 1515 1515 1517 1517 1517 1517 1517 1518 1518 1518 1518 1519 1519 1520 1520 1520 1521 1522 1523 1525 1526 1528 1528 1530 1531 1533 1534 1535 1537 1539 1542 1544 1546 1548 1550
1500 1502 1504 1506 1507 1508 1510 1511 1512 1513 1514 1514 1514 1513 1513 1513 1514 1514 1513 1513 1514 1515 1515 1515 1516 1517 1518 1520 1521 1523 1524 1525 1526 1527 1529 1531 1533 1535 1537 1539 1541 1543 1545
1500 1502 1503 1505 1506 1507 1508 1508 1509 1510 1510 1510 1510 1509 1509 1508 1508 1508 1507 1507 1508 1509 1509 1509 1510 1511 1513 1514 1516 1518 1519 1520 1521 1522 1524 1526 1528 1529 1531 1534 1536 1538 1540
1501 1502 1503 1504 1505 1506 1507 1507 1508 1507 1507 1507 1506 1506 1505 1504 1503 1502 1501 1501 1501 1502 1502 1504 1504 1505 1507 1509 1511 1513 1514 1515 1516 1517 1519 1521 1522 1525 1527 1529 1531 1533 1535
1502 1503 1503 1504 1505 1506 1506 1506 1506 1506 1505 1504 1503 1502 1501 1500 1498 1497 1496 1495 1495 1495 1496 1498 1499 1500 1502 1503 1506 1508 1509 1510 1511 1512 1514 1516 1518 1520 1522 1524 1526 1528 1530
1504 1504 1504 1505 1505 1505 1505 1505 1504 1504 1503 1502 1501 1499 1498 1496 1495 1493 1492 1491 1491 1490 1490 1492 1494 1495 1497 1499 1502 1503 1504 1505 1506 1508 1509 1511 1513 1515 1517 1519 1521 1523 1525
1505 1505 1505 1505 1505 1505 1504 1503 1503 1502 1501 1500 1498 1496 1495 1493 1492 1490 1489 1488 1487 1486 1485 1487 1489 1491 1492 1495 1497 1499 1500 1502 1501 1503 1504 1506 1509 1511 1513 1515 1517 1519 1521
1506 1506 1506 1504 1504 1503 1503 1502 1501 1500 1499 1498 1496 1494 1492 1490 1489 1487 1486 1485 1484 1483 1483 1483 1485 1487 1489 1491 1493 1495 1497 1496 1497 1498 1499 1502 1504 1507 1509 1512 1514 1516 1518
1506 1505 1504 1503 1502 1502 1501 1500 1499 1498 1497 1496 1494 1492 1490 1488 1486 1485 1484 1483 1482 1481 1481 1481 1482 1484 1485 1487 1488 1491 1493 1494 1494 1495 1497 1499 1501 1503 1506 1509 1510 1512 1514
1505 1504 1503 1502 1500 1499 1498 1498 1496 1495 1494 1492 1491 1489 1487 1485 1484 1482 1480 1479 1479 1478 1478 1478 1479 1480 1481 1483 1484 1486 1488 1490 1491 1493 1494 1496 1498 1500 1502 1505 1507 1509 1510
1502 1502 1501 1500 1498 1497 1495 1494 1493 1491 1490 1488 1486 1485 1483 1482 1481 1479 1477 1476 1475 1475 1475 1475 1476 1476 1477 1479 1480 1482 1484 1486 1487 1489 1491 1493 1495 1497 1499 1501 1503 1506 1507